This is the latest recevied weather packets stored in our database for station/object K5YNC. If no packets are shown the sender has not sent any weather packets the latest 1 day(s).
| Time | Temp. | Humidity | Pressure | Rain* | Wind** | Luminosity | Snow |
|---|---|---|---|---|---|---|---|
| 1778036107 | 13.33° C | 79% | 1012.4 hPa | 0 mm | 1.34 m/s, 352° | 0 W/m² | - |
| 1778035803 | 13.33° C | 80% | 1012.3 hPa | 0 mm | 0.89 m/s, 21° | 0 W/m² | - |
| 1778035500 | 13.33° C | 80% | 1012.3 hPa | 0 mm | 2.24 m/s, 343° | 0 W/m² | - |
| 1778035195 | 13.33° C | 80% | 1012.3 hPa | 0 mm | 0.89 m/s, 119° | 0 W/m² | - |
| 1778034893 | 13.33° C | 80% | 1011.6 hPa | 0 mm | 0.89 m/s, 354° | 0 W/m² | - |
| 1778034589 | 13.33° C | 80% | 1011.3 hPa | 0 mm | 0.89 m/s, 25° | 0 W/m² | - |
| 1778034287 | 13.89° C | 80% | 1011.4 hPa | 0 mm | 0.45 m/s, 106° | 0 W/m² | - |
| 1778033985 | 13.89° C | 80% | 1011.1 hPa | 0 mm | 0.89 m/s, 347° | 0 W/m² | - |
| 1778033682 | 13.89° C | 80% | 1010.9 hPa | 0 mm | 1.34 m/s, 322° | 0 W/m² | - |
| 1778033379 | 13.89° C | 80% | 1011 hPa | 0 mm | 2.24 m/s, 52° | 0 W/m² | - |
| 1778033077 | 13.89° C | 80% | 1010.2 hPa | 0 mm | 0.89 m/s, 173° | 0 W/m² | - |
| 1778032774 | 13.89° C | 80% | 1010.2 hPa | 0 mm | 2.68 m/s, 306° | 0 W/m² | - |
| 1778032471 | 14.44° C | 80% | 1010.2 hPa | 0 mm | 1.79 m/s, 102° | 0 W/m² | - |
| 1778032168 | 14.44° C | 80% | 1010.2 hPa | 0 mm | 2.24 m/s, 26° | 0 W/m² | - |
| 1778031865 | 14.44° C | 80% | 1010 hPa | 0 mm | 1.79 m/s, 5° | 0 W/m² | - |
| 1778031561 | 14.44° C | 80% | 1010.2 hPa | 0 mm | 1.34 m/s, 352° | 0 W/m² | - |
| 1778031260 | 15° C | 79% | 1009.9 hPa | 0 mm | 1.79 m/s, 99° | 0 W/m² | - |
| 1778030955 | 15° C | 79% | 1010 hPa | 0 mm | 1.34 m/s, 202° | 0 W/m² | - |
| 1778030652 | 15.56° C | 79% | 1009.6 hPa | 0 mm | 1.79 m/s, 351° | 0 W/m² | - |
| 1778030349 | 15.56° C | 78% | 1009.8 hPa | 0 mm | 1.34 m/s, 276° | 1 W/m² | - |
| 1778030046 | 15.56° C | 78% | 1009.7 hPa | 0 mm | 1.79 m/s, 44° | 1 W/m² | - |
| 1778029743 | 15.56° C | 78% | 1009.4 hPa | 0 mm | 2.24 m/s, 285° | 3 W/m² | - |
| 1778029442 | 16.11° C | 77% | 1009.5 hPa | 0 mm | 1.79 m/s, 289° | 5 W/m² | - |
| 1778029138 | 16.11° C | 77% | 1009.4 hPa | 0 mm | 1.79 m/s, 351° | 10 W/m² | - |
| 1778028835 | 16.11° C | 77% | 1009.2 hPa | 0 mm | 0.89 m/s, 303° | 11 W/m² | - |
* Rain latest hour (hover to see other rain measurements)
** Current wind speed in m/s (hover to see current wind gust speed)